WP4MXZ San Sebastian PR US current weather conditions

sailwx.info

Wind from 098

Air temperature 25.6° C
Dewpoint 25.6° C

Last reported at 2014-Oct-31 19:33 UTC.
Time now 2014-Nov-01 06:58 UTC

Location: N 18°20' W 067°00'.
View on Google Maps.

See reports from other nearby stations

  
Tides and Currents Weather Stations Pressure Air Temp Water Temp Dewpoint Dewpoint Depression Visibility Wind Speed Wind Dir Waves Ship Positions
date/time (UTC)wind fromknots sea level pressurealtimeterstation pressurevisibilityair tempwater tempwave heightnotes
2014-Oct-31 19:33 098 25.6
2014-Oct-31 19:04 098 25.0
2014-Oct-31 18:33 180 24.4
2014-Oct-31 18:03 204 26.1
2014-Oct-31 17:33 343 26.7
2014-Oct-31 17:03 126 27.2
2014-Oct-31 16:33 122 2 gusting 6 29.4
2014-Oct-31 16:03 29.4
2014-Oct-31 15:33 083 30.6
2014-Oct-31 15:04 081 2 gusting 4 30.6
2014-Oct-31 14:34 100 0 gusting 4 30.6
2014-Oct-31 14:03 067 29.4
2014-Oct-31 13:34 065 28.9
2014-Oct-31 12:03 006 26.1
2014-Oct-31 11:33 325 24.4
2014-Oct-31 11:03 326 22.8
2014-Oct-31 10:33 326 22.2
2014-Oct-31 10:03 325 22.8
2014-Oct-31 09:33 325 22.8
2014-Oct-31 09:03 325 22.8
2014-Oct-31 08:33 325 22.8
2014-Oct-31 08:03 326 22.8
2014-Oct-31 07:33 326 22.8
2014-Oct-31 07:03 326 22.8
2014-Oct-31 06:33 002 22.8
2014-Oct-31 06:03 242 23.3
2014-Oct-31 05:33 099 22.8
2014-Oct-31 05:03 118 23.3
2014-Oct-31 04:33 118 23.3
2014-Oct-31 04:03 158 23.9
2014-Oct-31 03:34 064 1 gusting 4 24.4
2014-Oct-31 03:03 229 25.0
2014-Oct-31 02:33 229 25.0
2014-Oct-31 02:03 229 25.0
2014-Oct-31 01:33 229 25.0
2014-Oct-31 01:03 229 25.0
2014-Oct-31 00:33 229 25.0
2014-Oct-30 23:33 136 26.1
2014-Oct-30 23:03 137 26.7
2014-Oct-30 22:33 298 26.7
2014-Oct-30 22:03 338 27.2
2014-Oct-30 21:33 308 27.8
2014-Oct-30 21:03 307 28.3
2014-Oct-30 20:33 28.9
2014-Oct-30 20:03 326 1 28.9
2014-Oct-30 19:33 341 29.4
2014-Oct-30 19:03 29.4
2014-Oct-30 18:33 307 0 gusting 4 31.7
2014-Oct-30 18:03 262 4 gusting 8 31.7
2014-Oct-30 17:33 316 2 gusting 6 32.2
2014-Oct-30 17:03 312 31.1
2014-Oct-30 16:33 049 0 gusting 4 31.7
2014-Oct-30 16:03 072 31.1
2014-Oct-30 15:33 143 31.1
2014-Oct-30 15:04 018 30.0
2014-Oct-30 14:33 176 30.0
2014-Oct-30 14:03 223 29.4
2014-Oct-30 13:33 103 28.3
2014-Oct-30 13:03 176 28.3
2014-Oct-30 12:33 179 27.8
2014-Oct-30 12:03 179 26.1
2014-Oct-30 11:33 179 24.4
2014-Oct-30 11:04 179 22.8
2014-Oct-30 10:33 179 22.8
2014-Oct-30 10:03 179 22.8
2014-Oct-30 09:33 179 22.8
2014-Oct-30 09:03 179 22.8
2014-Oct-30 08:33 179 23.3
2014-Oct-30 08:03 179 23.3
2014-Oct-30 07:33 179 23.3
2014-Oct-30 07:03 179 23.3
2014-Oct-30 06:33 179 23.9
2014-Oct-30 06:03 179 23.9